Overview Statistics Trail Chart Weather Telemetry Raw packets
 

This is the latest recevied weather packets stored in our database for station/object E24QND-2. If no packets are shown the sender has not sent any weather packets the latest 10 day(s).

<< 5 6 7 8 9 10 11 >>
Time Temp. Humidity Pressure Rain* Wind** Luminosity Snow
1788504838 34.44° C 99% - - - 0 W/m² -
1788503613 35° C 1% - - - 0 W/m² -
1788502389 32.78° C 38% - - - 0 W/m² -
1788501164 32.22° C 17% - - - 0 W/m² -
1788499940 31.67° C 1% - - - 0 W/m² -
1788498715 31.11° C 1% - - - 0 W/m² -
1788497491 31.11° C 1% - - - 0 W/m² -
1788496266 31.67° C 1% - - - 0 W/m² -
1788495042 32.22° C 1% - - - 0 W/m² -
1788493817 31.11° C 1% - - - 0 W/m² -
1788492593 32.78° C 4% - - - 0 W/m² -
1788491368 31.11° C 1% - - - 0 W/m² -
1788490144 32.78° C 1% - - - 0 W/m² -
1788488919 31.11° C 1% - - - 0 W/m² -
1788487695 31.67° C 1% - - - 0 W/m² -
1788486470 30.56° C 1% - - - 0 W/m² -
1788485245 30.56° C 28% - - - 0 W/m² -
1788484020 30° C 99% - - - 0 W/m² -
1788482796 28.89° C 1% - - - 0 W/m² -
1788481571 28.33° C 1% - - - 0 W/m² -
1788480347 28.33° C 18% - - - 0 W/m² -
1788479122 27.78° C 1% - - - 0 W/m² -
1788477898 27.78° C 1% - - - 0 W/m² -
1788476673 27.78° C 1% - - - 0 W/m² -
1788475448 27.78° C 1% - - - 0 W/m² -

* Rain since midnight (hover to see other rain measurements)
** Current wind speed in m/s (hover to see current wind gust speed)